Regional Weather Roundup
Issued by NWS

Home | Current Version | Previous Version | Text Only | Print | Product List | Glossary On
Versions: 1 2 3 4 5 6 7 8 9 10 11 12 13 14 15 16 17 18 19 20 21 22 23 24 25 26 27 28 29 30 31 32 33 34 35 36 37 38 39 40 41 42 43 44 45 46 47 48 49 50
741
ASUS42 KTBW 290016
RWRFL
FLORIDA REGIONAL WEATHER ROUNDUP
NATIONAL WEATHER SERVICE TAMPA BAY RUSKIN FL
800 PM EDT THU APR 28 2016

NOTE: "FAIR" INDICATES FEW OR NO CLOUDS BELOW 12,000 FEET WITH NO
SIGNIFICANT WEATHER AND/OR OBSTRUCTIONS TO VISIBILITY.

FLZ001>010-012>015-112-114-115-290100-
PANHANDLE FLORIDA

CITY           SKY/WX    TMP DP  RH WIND       PRES   REMARKS
PENSACOLA      CLOUDY    79  65  62 N3        29.94S
MILTON NAS     MOCLDY    76  69  79 W3        29.95S
CRESTVIEW      MOCLDY    77  66  68 CALM      29.96F
DUKE FIELD     MOCLDY    77  66  68 E1        29.93F
VALPARAISO     MOCLDY    76  67  73 E3        29.93F
MARY ESTHER    MOCLDY    75  65  70 NE1       29.93F
TRI COUNTY     FAIR      76  70  82 SW3       29.95F
PANAMA CITY    FAIR      76  72  87 S3        29.95F
TYNDALL AFB    MOCLDY    76  73  90 SE12      29.94F
APALACHICOLA   PTCLDY    77  76  96 SW7       29.96F

STATION/POSITION SKY/WX   TEMP    WIND        PRES    WAVE   SWELL
                          AIR SEA DIR/SP/G            HT/PER HT/PER
                          (F)     (DEG/KT/KT) (MB)    (FT/S) (FT/S)
30.1N   87.6W              75 73  360/  4/  4 1013.1S   2/ 5   2/ 5
29.2N   88.2W              74 73  100/  6/ 10 1013.5F
28.8N   86.0W              78 79  260/  6/  8 1016.0    2/ 6   2/ 6
PANAMA CITY BEAC           75 76              1014.4F
TOWER C                    74     210/ 10/ 10 1015.2F
28.5N   84.5W              76 75  160/  4/  4 1015.5R   2/ 6   2/ 6

$$
FLZ011-016>038-118-127-128-134-139-239-290100-
NORTH FLORIDA

CITY           SKY/WX    TMP DP  RH WIND       PRES   REMARKS
MARIANNA       PTCLDY    77  72  84 SW6       29.94F
TALLAHASSEE    MOCLDY    77  73  87 SE5       29.97F
PERRY          CLOUDY    76  72  86 S6        30.00S
LIVE OAK         N/A     79  72  78 SW5       30.02R
CROSS CITY       N/A     78  71  79 W7        30.00R
LAKE CITY      FAIR      77  68  73 W9        30.00S
GAINESVILLE    CLOUDY    80  65  59 W7        29.99R
WILLISTON      FAIR      81  66  61 W6        30.00R
PALATKA        FAIR      81  66  61 NW5       29.98R
MAYPORT NAS    CLOUDY    75  69  81 SE7       29.97R
JACKSONVILLE   CLOUDY    75  69  81 W7        29.96S
JAX NAS        CLOUDY    83  68  60 N9        29.97R
JAX CECIL      PTCLDY    77  66  69 W8        29.97S
FERNANDINA BEA FAIR      77  72  83 CALM      29.96S
ST AUGUSTINE   PTCLDY    78  66  66 S8        29.98R
PALM COAST     MOCLDY    77  67  71 CALM      29.98

STATION/POSITION SKY/WX   TEMP    WIND        PRES    WAVE   SWELL
                          AIR SEA DIR/SP/G            HT/PER HT/PER
                          (F)     (DEG/KT/KT) (MB)    (FT/S) (FT/S)
SHELL POINT                78     190/  5/  8 1014.0
KEATON BEACH               76     220/  8/  9 1015.6R
CEDAR KEY                  76     270/  7/  9 1016.4R
FERNANDINA                 78 77              1014.6R
30.7N   81.3W                 72                N/A     2/ 4
MAYPORT                    77 76              1014.8R
ST AUGUSTINE               74 72  170/ 10/ 11 1015.8R

$$
FLZ040-043>046-052-053-057-058-063-144-290100-
INTERIOR CENTRAL FLORIDA

CITY           SKY/WX    TMP DP  RH WIND       PRES   REMARKS
OCALA          PTCLDY    81  63  54 W5        30.00R
THE VILLAGES     N/A     81  66  61 W8        29.89R
LEESBURG       PTCLDY    81  65  58 NW9       29.98R
SANFORD        CLOUDY    75  66  73 SE17      29.98R THUNDER
ORLANDO EXEC   MOCLDY    75  67  76 SE10      29.98R THUNDER
ORLANDO INTL   TSTM      72  68  87 SE10      30.00R
KISSIMMEE      CLOUDY    82  68  61 NE14      29.98R
WINTER HAVEN   PTCLDY    81  68  64 NW10      29.98R
LAKELAND       MOCLDY    79  68  69 SW6       29.98S
BARTOW         FAIR      81  66  61 W13       29.98R
OKEECHOBEE     PTCLDY    77  61  57 E3        29.99R

$$
FLZ041-047-054-059-064-141-147-290100-
EAST CENTRAL FLORIDA

CITY           SKY/WX    TMP DP  RH WIND       PRES   REMARKS
DAYTONA BEACH  CLOUDY    79  66  64 SE3       29.98R
DELAND           N/A     81  68  65 SE7       29.99R
NEW SMYRNA BEA PTCLDY    77  66  69 SE12G17   29.98R
JFK SPACE CTR  MOCLDY    78  66  67 SE5       29.97R
TITUSVILLE     PTCLDY    77  68  73 SE9       29.98R
CAPE CANAVERAL CLEAR     78  69  74 SE10      29.97R
PATRICK AFB    CLEAR     78  70  77 SE13      29.97S
MELBOURNE      CLEAR     79  66  64 SE14      29.97S
VERO BEACH     CLEAR     78  66  66 SE12      29.99R
FT PIERCE      CLEAR     77  65  66 SE10      29.99R
STUART         CLEAR     81  70  69 SE12      30.00R

STATION/POSITION SKY/WX   TEMP    WIND        PRES    WAVE   SWELL
                          AIR SEA DIR/SP/G            HT/PER HT/PER
                          (F)     (DEG/KT/KT) (MB)    (FT/S) (FT/S)
28.5N   80.2W              78 77  130/ 12/ 12 1015.3S
28.9N   78.5W              76 77  180/  6/  6 1016.2R
TRIDENT PIER               78 79              1014.9R
28.4N   80.5W                 78                N/A     2/ 3
27.5N   80.2W                 78                N/A     2/13   2/13

$$
FLZ050-056-061-142-242-148-248-149-249-151-251-155-255-
160-260-290100-
WEST CENTRAL FLORIDA

CITY           SKY/WX    TMP DP  RH WIND       PRES   REMARKS
CRYSTAL RIVER  FAIR     N/A N/A N/A W3        30.00R
INVERNESS      FAIR      77  68  73 CALM      30.00R
BROOKSVILLE    CLEAR     76  68  76 W7        30.00R
ZEPHYRHILLS    FAIR      80  64  57 NW12G17   29.99R
CLEARWATER AIR FAIR      75  68  78 NW5       29.99S
ST PETE CLEARW CLEAR     78  66  66 W9        29.99R
TAMPA INTL     PTCLDY    80  65  59 W12       29.99R
TAMPA EXEC     CLEAR     82  64  54 NW7       29.99R
PLANT CITY     PTCLDY    82  68  61 NW7       30.00R
MACDILL AFB    CLEAR     80  68  66 NW8       29.99R
PETER O KNIGHT CLEAR     81  68  65 W7        29.99R
ST PETERSBURG  CLEAR     80  65  59 NW7       29.97R
SARASOTA       CLEAR     79  67  66 NW7       29.98R
VENICE         NOT AVBL

STATION/POSITION SKY/WX   TEMP    WIND        PRES    WAVE   SWELL
                          AIR SEA DIR/SP/G            HT/PER HT/PER
                          (F)     (DEG/KT/KT) (MB)    (FT/S) (FT/S)
27.3N   84.2W                 80                N/A     2/ 5
CLEARWATER BEACH           77 79              1015.6R
MIDDLE TAMPA BAY NOT AVBL
VENICE                     77 80  320/  9/ 10 1015.1R

$$
FLZ066-069-070-075>078-162-262-165-265-290100-
SOUTHWEST FLORIDA AND KEYS

CITY           SKY/WX    TMP DP  RH WIND       PRES   REMARKS
PUNTA GORDA    CLEAR     80  68  66 W9        29.99R
FT MYERS       PTCLDY    81  67  62 NW7       29.97R
SOUTHWEST INTL CLEAR     81  66  60 W6        29.97R
NAPLES         PTCLDY    79  71  76 W8        29.97R
MARCO ISLAND   MOCLDY    81  66  61 W6        29.97R
MARATHON       CLEAR     80  71  74 E6        29.96R
KEY WEST NAS   PTCLDY    79  69  71 E6        29.96R
KEY WEST INTL  CLEAR     80  71  74 E6        29.96R

STATION/POSITION SKY/WX   TEMP    WIND        PRES    WAVE   SWELL
                          AIR SEA DIR/SP/G            HT/PER HT/PER
                          (F)     (DEG/KT/KT) (MB)    (FT/S) (FT/S)
NAPLES                        83              1014.5R
26.0N   85.6W              80 80  100/  6/  8 1015.0R   3/ 5   3/ 5
DRY TORTUGAS               78      60/  8/  8 1014.5R
SAND KEY                   79      90/  7/  8 1014.7R
LONG KEY                   80 82  110/  7/  9 1015.1R
MOLASSES REEF              79 80  110/  9/ 10 1014.8R

$$
FLZ067-068-071>074-168-172>174-290100-
SOUTHEAST FLORIDA

CITY           SKY/WX    TMP DP  RH WIND       PRES   REMARKS
W PALM BEACH   PTCLDY    79  67  66 SE10      30.00R
BOCA RATON     CLEAR     79  68  69 SE12      29.99R
FT LAUDER-EXEC PTCLDY    79  68  69 E10       29.98R
FT LAUDERDALE  PTCLDY    79  68  69 SE10      29.98R
POMPANO BEACH  CLEAR     76  69  79 E8        29.99R
PEMBROKE PINES CLEAR     79  68  69 E10       29.99R
OPA LOCKA      CLEAR     79  68  69 SE9       29.99R
MIAMI          PTCLDY    79  69  71 SE10      29.98R
WEST KENDALL   CLEAR     78  69  73 SE9       29.98R
HOMESTEAD      CLEAR     79  70  74 E6        29.97R

STATION/POSITION SKY/WX   TEMP    WIND        PRES    WAVE   SWELL
                          AIR SEA DIR/SP/G            HT/PER HT/PER
                          (F)     (DEG/KT/KT) (MB)    (FT/S) (FT/S)
PORT EVERGLADES            80     100/  4/  7 1015.0S
VIRGINIA KEY               79 81              1015.2S
LAKE WORTH                 78 80              1015.1R
SETTLEMENT POINT           77     150/  4/  5 1016.5S

$$





USA.gov is the U.S. government's official web portal to all federal, state and local government web resources and services.